Tucumcari, NM

6:43 AM MDT on May 27, 2018 (GMT -0600)
Tucumcari Municipal

Weather History for KTCC - January, 2013

Change the Weather History Date:

Thursday, January 24, 2013

  Actual Average Record
Temperature  
Mean Temperature 51 °F -  
Max Temperature 75 °F 56 °F 76 °F (1910)
Min Temperature 27 °F 25 °F 1 °F (1929)
Degree Days  
Heating Degree Days 14    
Growing Degree Days 1 (Base 50)    
Moisture  
Dew Point 18 °F    
Average Humidity 34    
Maximum Humidity 66    
Minimum Humidity 9    
Precipitation  
Precipitation 0.00 in - - ()
Sea Level Pressure  
Sea Level Pressure 30.04 in    
Wind  
Wind Speed 9 mph (WSW)    
Max Wind Speed 23 mph    
Max Gust Speed 30 mph    
Visibility 10 miles    
Events      
Averages and records for this station are not official NWS values.
T = Trace of Precipitation, MM = Missing Value Source: NWS Daily Summary

Daily Weather History Graph

Daily Weather History Graph

Search for Another Location

Airport or City:

Astronomy

Jan. 24, 2013 Rise Set
Actual Time 6:58 AM MST 5:15 PM MST
Civil Twilight 6:31 AM MST 5:42 PM MST
Nautical Twilight 6:00 AM MST 6:12 PM MST
Astronomical Twilight 5:30 AM MST 6:42 PM MST
Moon 3:20 PM MST (1/24) 4:56 AM MST (1/24)
Length of Visible Light 11h 10m
Length of Day
10h 16m
Waxing Gibbous, 95% of the Moon is Illuminated
Jan 24
Waxing Gibbous
Jan 26
Full
Feb 3
Last Quarter
Feb 10
New
Feb 17
First Quarter

Hourly Weather History & Observations

Time (MST) Temp. Windchill Dew Point Humidity Pressure Visibility Wind Dir Wind Speed Gust Speed Precip Events Conditions
12:53 AM 46.0 °F 39.6 °F 9.0 °F 22% 30.05 in 10.0 mi West 15.0 mph - N/A   Clear
1:53 AM 44.1 °F 37.4 °F 9.0 °F 24% 30.04 in 10.0 mi West 13.8 mph - N/A   Clear
2:53 AM 42.1 °F 38.4 °F 10.0 °F 27% 30.06 in 10.0 mi North 5.8 mph - N/A   Clear
3:53 AM 33.1 °F 25.5 °F 10.9 °F 40% 30.10 in 10.0 mi NNE 9.2 mph - N/A   Clear
4:53 AM 28.0 °F 22.8 °F 16.0 °F 61% 30.14 in 10.0 mi SE 4.6 mph - N/A   Clear
5:53 AM 27.0 °F - 16.0 °F 63% 30.18 in 10.0 mi Calm Calm - N/A   Clear
6:53 AM 28.0 °F - 18.0 °F 66% 30.19 in 10.0 mi Calm Calm - N/A   Clear
7:53 AM 30.0 °F - 19.9 °F 66% 30.18 in 10.0 mi Calm Calm - N/A   Clear
8:53 AM 33.1 °F 28.7 °F 23.0 °F 66% 30.16 in 10.0 mi East 4.6 mph - N/A   Clear
9:53 AM 37.0 °F - 24.1 °F 59% 30.15 in 10.0 mi Calm Calm - N/A   Clear
10:53 AM 42.1 °F - 24.1 °F 49% 30.11 in 10.0 mi Calm Calm - N/A   Clear
11:53 AM 50.0 °F - 23.0 °F 35% 30.04 in 10.0 mi Calm Calm - N/A   Clear
12:53 PM 62.1 °F - 21.0 °F 21% 29.96 in 10.0 mi South 3.5 mph - N/A   Clear
1:53 PM 75.0 °F - 12.9 °F 9% 29.89 in 10.0 mi WSW 6.9 mph - N/A   Clear
2:53 PM 73.0 °F - 10.0 °F 9% 29.90 in 10.0 mi WSW 23.0 mph 29.9 mph N/A   Clear
3:53 PM 69.1 °F - 10.9 °F 11% 29.93 in 10.0 mi West 19.6 mph - N/A   Clear
4:53 PM 64.9 °F - 12.0 °F 13% 29.95 in 10.0 mi SW 11.5 mph - N/A   Clear
5:53 PM 57.9 °F - 15.1 °F 19% 29.99 in 10.0 mi West 4.6 mph - N/A   Clear
6:53 PM 61.0 °F - 18.0 °F 19% 29.99 in 10.0 mi WSW 5.8 mph - N/A   Clear
7:53 PM 64.0 °F - 25.0 °F 23% 29.97 in 10.0 mi West 20.7 mph 27.6 mph N/A   Clear
8:53 PM 63.0 °F - 28.0 °F 27% 29.96 in 10.0 mi West 21.9 mph - N/A   Clear
9:53 PM 61.0 °F - 27.0 °F 27% 29.97 in 10.0 mi West 19.6 mph - N/A   Clear
10:53 PM 61.0 °F - 27.0 °F 27% 29.99 in 10.0 mi West 15.0 mph - N/A   Clear
11:53 PM 59.0 °F - 27.0 °F 29% 29.97 in 10.0 mi West 15.0 mph - N/A   Clear